Weather History for St. Johns, AZ

Change the Weather History Date:

Tuesday, April 30, 2013

  Actual Average (KSOW) Record (KSOW)
Temperature  
Mean Temperature 56 °F -  
Max Temperature 73 °F 65 °F 80 °F (1992)
Min Temperature 39 °F 46 °F 16 °F (1967)
Degree Days  
Heating Degree Days 9    
Growing Degree Days 6 (Base 50)    
Moisture  
Dew Point 13 °F    
Average Humidity 12    
Maximum Humidity 20    
Minimum Humidity 4    
Precipitation  
Precipitation 0.00 in - - ()
Sea Level Pressure  
Sea Level Pressure 29.69 in    
Wind  
Wind Speed 15 mph (WSW)    
Max Wind Speed 28 mph    
Max Gust Speed 37 mph    
Visibility 10 miles    
Events      
Averages and records for this station are not official NWS values.
T = Trace of Precipitation, MM = Missing Value Source: NWS Daily Summary

Daily Weather History Graph

Daily Weather History Graph

Search for Another Location

Airport:

Trip Planner

Search our weather history database for the weather conditions in past years. The results will help you decide how hot, cold, wet, or windy it might be!

Date:

Astronomy

Apr. 30, 2013 Rise Set
Actual Time 5:28 AM MST 7:01 PM MST
Civil Twilight 5:01 AM MST 7:28 PM MST
Nautical Twilight 4:29 AM MST 8:00 PM MST
Astronomical Twilight 3:55 AM MST 8:34 PM MST
Moon No Moon Rise 10:03 AM MST (4/30)
Length of Visible Light 14h 27m
Length of Day
13h 33m
Waning Gibbous, 69% of the Moon is Illuminated
Apr 30
Waning Gibbous
May 2
Last Quarter
May 9
New
May 17
First Quarter
May 24
Full

Hourly Weather History & Observations

Time (MST) Temp. Dew Point Humidity Pressure Visibility Wind Dir Wind Speed Gust Speed Precip Events Conditions
12:54 AM 63.0 °F 16.0 °F 16% 29.62 in 10.0 mi WSW 16.1 mph - N/A   Clear
1:54 AM 61.0 °F 15.1 °F 17% 29.62 in 10.0 mi SW 13.8 mph - N/A   Clear
2:54 AM 60.1 °F 15.1 °F 17% 29.61 in 10.0 mi SW 13.8 mph - N/A   Clear
3:54 AM 59.0 °F 15.1 °F 18% 29.63 in 10.0 mi WSW 13.8 mph - N/A   Clear
4:54 AM 60.1 °F 15.1 °F 17% 29.64 in 10.0 mi SW 16.1 mph - N/A   Clear
5:54 AM 57.9 °F 15.1 °F 19% 29.67 in 10.0 mi SW 12.7 mph 21.9 mph N/A   Clear
6:54 AM 63.0 °F 15.1 °F 16% 29.70 in 10.0 mi SW 11.5 mph - N/A   Clear
7:54 AM 70.0 °F 15.1 °F 12% 29.70 in 10.0 mi West 11.5 mph 18.4 mph N/A   Clear
8:54 AM 73.9 °F 12.0 °F 9% 29.70 in 10.0 mi West 18.4 mph 25.3 mph N/A   Clear
9:54 AM 77.0 °F 14.0 °F 9% 29.68 in 10.0 mi West 15.0 mph 25.3 mph N/A   Clear
10:54 AM 79.0 °F 14.0 °F 9% 29.66 in 10.0 mi West 25.3 mph 34.5 mph N/A   Clear
11:54 AM 80.1 °F 10.9 °F 7% 29.65 in 10.0 mi SW 17.3 mph 32.2 mph N/A   Clear
12:54 PM 80.6 °F 12.2 °F 8% 29.91 in 10.0 mi WSW 23.0 mph 32.2 mph N/A   Clear
1:54 PM 82.0 °F 12.0 °F 7% 29.61 in 10.0 mi SW 21.9 mph 36.8 mph N/A   Clear
2:54 PM 81.0 °F 12.0 °F 7% 29.60 in 10.0 mi WSW 19.6 mph 32.2 mph N/A   Clear
3:54 PM 80.1 °F 10.9 °F 7% 29.60 in 10.0 mi WSW 21.9 mph 33.4 mph N/A   Clear
4:54 PM 77.0 °F 9.0 °F 7% 29.61 in 10.0 mi WSW 24.2 mph 32.2 mph N/A   Clear
5:54 PM 73.0 °F 8.1 °F 8% 29.64 in 10.0 mi WSW 18.4 mph 26.5 mph N/A   Clear
6:54 PM 71.1 °F 10.0 °F 9% 29.64 in 10.0 mi WSW 19.6 mph 27.6 mph N/A   Clear
7:54 PM 66.9 °F 12.0 °F 12% 29.65 in 10.0 mi WSW 12.7 mph - N/A   Clear
8:54 PM 63.0 °F 14.0 °F 15% 29.68 in 10.0 mi WSW 8.1 mph - N/A   Clear
9:54 PM 57.2 °F 15.8 °F 20% 29.94 in 10.0 mi SSW 6.9 mph - N/A   Clear
10:54 PM 60.1 °F 14.0 °F 16% 29.68 in 10.0 mi Calm Calm - N/A   Clear
11:54 PM 57.2 °F 14.0 °F 18% 29.97 in 10.0 mi SW 5.8 mph - N/A   Clear